Regional Weather Roundup
Issued by NWS

Home | Current Version | Previous Version | Graphics & Text | Print | Product List | Glossary On
Versions: 1 2 3 4 5 6 7 8 9 10 11 12 13 14 15 16 17 18 19 20 21 22 23 24 25 26 27 28 29 30 31 32 33 34 35 36 37 38 39 40 41 42 43 44 45 46 47 48 49 50
000
ASUS45 KCYS 011110
RWRWY

WYOMING REGIONAL WEATHER ROUNDUP
NATIONAL WEATHER SERVICE CHEYENNE WY
500 AM MDT TUE SEP 01 2015

NOTE:  "FAIR" INDICATES FEW OR NO CLOUDS BELOW 12,000 FEET
WITH NO SIGNIFICANT WEATHER AND/OR OBSTRUCTIONS TO VISIBILITY.

WYZ001-011200-
YELLOWSTONE NATIONAL PARK

CITY           SKY/WX    TMP DP  RH WIND       PRES   REMARKS
LK YELLOWSTONE   N/A     33  29  85 VRB3      30.21R
W YELLOWSTONE  NOT AVBL

$$
WYZ002>013-054>058-071-098>099-011200-
NORTHERN WYOMING

CITY           SKY/WX    TMP DP  RH WIND       PRES   REMARKS
JACKSON        FAIR      37  32  81 N6        30.14S WCI  33
CODY           FAIR      55  27  33 S8        29.97F
GREYBULL       FAIR      52  30  43 NW5       29.93R
WORLAND        FAIR      49  31  49 S12       29.93S
SHERIDAN       FAIR      50  41  71 SE5       29.91S
BUFFALO        FAIR      57  34  41 SW9       29.98R
GILLETTE       FAIR      51  46  83 CALM      29.94R
HULETT         FAIR      54  48  82 S5        29.94S
NEWCASTLE      FAIR      61  43  51 MISG      29.96F

$$
WYZ014>020-022>026-101>103-011200-
CENTRAL WYOMING

CITY           SKY/WX    TMP DP  RH WIND       PRES   REMARKS
BIG PINEY      FAIR      37  23  56 E5        30.19S WCI  33
PINEDALE       FAIR      34  28  80 W7        30.21S WCI  28
DUBOIS         FAIR      46  25  42 NW13      30.14S
LANDER         FAIR      55  27  34 NW6       30.02S
RIVERTON       FAIR      53  28  38 NW10      30.04R
CASPER         FAIR      61  41  47 SW14      30.03F
DOUGLAS        FAIR      55  41  59 CALM      30.03S

$$
WYZ021-027>030-104>119-011200-
SOUTHERN WYOMING

CITY           SKY/WX    TMP DP  RH WIND       PRES   REMARKS
EVANSTON       FAIR      54  39  57 SE8       30.18S
KEMMERER       FAIR      43  30  61 N12       30.20R
FORT BRIDGER   SUNNY     55  39  54 SW5       30.20S
ROCK SPRINGS   FAIR      55  41  59 SE9       30.16S
DIXON          FAIR      49  44  81 E8        30.23S
RAWLINS        FAIR      51  39  63 SE6       30.18S
SARATOGA       FAIR      50  43  76 SE9       30.22S
LARAMIE        FAIR      45  40  82 SE8       30.22S
CHEYENNE       FAIR      54  45  71 SW6       30.13S
TORRINGTON     FAIR      52  47  83 E7        29.99S
PINE BLUFFS    FAIR      50  45  81 SW5       30.09S

$$


USA.gov is the U.S. government's official web portal to all federal, state and local government web resources and services.